Station 46225 - Torrey Pines Outer, CA (100) Image indicating link to RSS feed of recent meteorological observations for station 46225


Conditions at 46225 as of
(4:26 am PDT)
1126 GMT on 06/23/2024:
     

Click on the graph icon in the table below to see a time series plot of the last five days of that observation.

5-day plot - Wave Height Wave Height (WVHT): 2.6 ft
5-day plot - Dominant Wave Period Dominant Wave Period (DPD): 17 sec
5-day plot - Average Wave Period Average Period (APD): 7.1 sec
5-day plot - Mean Wave Direction Mean Wave Direction (MWD):SSW ( 192 deg true )
5-day plot - Water Temperature Water Temperature (WTMP): 68.0 °F
Previous observations
TIME
(PDT)
5-day plot - Wind Direction
WDIR
 
5-day plot - Wind Speed
WSPD
kts
5-day plot - Wind Gust
GST
kts
5-day plot - Wave Height
WVHT
ft
5-day plot - Dominant Wave Period
DPD
sec
5-day plot - Average Wave Period
APD
sec
5-day plot - Mean Wave Direction
MWD
 
5-day plot - Atmospheric Pressure
PRES
in
5-day plot - Pressure Tendency
PTDY
in
5-day plot - Air Temperature
ATMP
°F
5-day plot - Water Temperature
WTMP
°F
5-day plot - Dew Point
DEWP
°F
5-day plot - Salinity
SAL
psu
5-day plot - Visibility
VIS
nmi
5-day plot - Tide (above MLLW)
TIDE
ft
2024-06-23 03:56 am--- 2.6 187.0SSW--- 68.0----
2024-06-23 03:26 am--- 3.0 187.4SSW--- 68.0----
2024-06-23 02:56 am--- 2.6 186.6SSW--- 68.0----
2024-06-23 02:26 am--- 2.6 186.8SSW--- 67.8----
2024-06-23 01:56 am--- 3.0 186.8SSW--- 67.8----
2024-06-23 01:26 am--- 2.6 186.4SSW--- 68.0----
2024-06-23 12:56 am--- 2.6 186.3 S--- 68.4----
2024-06-23 12:26 am--- 2.6 186.3SSW--- 68.4----
2024-06-22 11:56 pm--- 2.6 96.1 W--- 68.4----
2024-06-22 11:26 pm--- 2.6 186.0 S--- 68.4----
2024-06-22 10:56 pm--- 2.6 186.1 S--- 68.0----
2024-06-22 10:26 pm--- 2.6 186.0SSW--- 67.8----
2024-06-22 09:56 pm--- 2.6 186.0 S--- 67.8----
2024-06-22 09:26 pm--- 2.6 185.9 S--- 68.0----
2024-06-22 08:56 pm--- 2.6 115.8SSW--- 68.4----
2024-06-22 08:26 pm--- 2.6 206.0SSW--- 68.5----
2024-06-22 07:56 pm--- 2.6 135.8SSW--- 68.5----
2024-06-22 07:26 pm--- 2.6 185.7SSW--- 68.7----
2024-06-22 06:56 pm--- 2.6 186.0 S--- 68.7----
2024-06-22 06:26 pm--- 2.6 85.8WNW--- 68.9----
2024-06-22 05:56 pm--- 3.0 85.8WNW--- 69.1----
2024-06-22 05:26 pm--- 3.0 95.9 W--- 69.1----
2024-06-22 04:56 pm--- 3.3 136.1SSW--- 69.1----
2024-06-22 04:26 pm--- 3.3 86.0WNW--- 69.3----
2024-06-22 03:56 pm--- 3.3 85.9WNW--- 69.4----
2024-06-22 03:26 pm--- 3.3 86.2WNW--- 69.6----
2024-06-22 02:56 pm--- 3.3 86.1WNW--- 69.6----
2024-06-22 02:26 pm--- 3.3 85.9WNW--- 69.6----
2024-06-22 01:56 pm--- 3.3 85.9WNW--- 69.8----
2024-06-22 01:26 pm--- 3.6 86.2WNW--- 69.6----
2024-06-22 12:56 pm--- 3.6 76.0WNW--- 69.4----
2024-06-22 12:26 pm--- 3.6 86.3WNW--- 69.3----
2024-06-22 11:56 am--- 3.9 76.3WNW--- 69.3----
2024-06-22 11:26 am--- 3.9 86.1WNW--- 69.1----
2024-06-22 10:56 am--- 3.9 76.2WNW--- 69.1----
2024-06-22 10:26 am--- 3.6 76.0WNW--- 69.1----
2024-06-22 09:56 am--- 3.6 85.9WNW--- 68.9----
2024-06-22 09:26 am--- 3.9 86.0WNW--- 68.7----
2024-06-22 08:56 am--- 3.6 75.9WNW--- 68.7----
2024-06-22 08:26 am--- 3.6 76.1 W--- 68.7----
2024-06-22 07:56 am--- 3.6 76.3WNW--- 68.5----
2024-06-22 07:26 am--- 3.6 86.2WNW--- 68.4----
2024-06-22 06:56 am--- 3.6 86.2WNW--- 68.4----
2024-06-22 06:26 am--- 3.3 86.1WNW--- 68.5----
2024-06-22 05:56 am--- 3.3 86.1 W--- 68.7----
2024-06-22 05:26 am--- 3.3 76.1 W--- 68.5----
2024-06-22 04:56 am--- 3.3 86.1 W--- 68.2----
2024-06-22 04:26 am--- 3.3 76.2 W--- 67.8----
2024-06-22 03:56 am--- 3.3 86.0WNW--- 67.3----

Detailed Wave Summary
for 46225 as of (4:26 am PDT)
1126 GMT on 06/23/2024:

These wave data are displayed in rounded times.

     

Click on the graph icon in the table below to see a time series plot of the last five days of that observation.

5-day plot - Significant Wave Height Significant Wave Height (WVHT): 2.6 ft
5-day plot - Swell Height Swell Height (SwH): 1.6 ft
5-day plot - Swell Period Swell Period (SwP): 16.7 sec
5-day plot - Swell Direction Swell Direction (SwD):SSW
5-day plot - Wind Wave Height Wind Wave Height (WWH): 2.0 ft
5-day plot - Wind Wave Period Wind Wave Period (WWP): 7.7 sec
5-day plot - Wind Wave Direction Wind Wave Direction (WWD): W
5-day plot - Average Wave Period Average Wave Period (APD): 7.1 sec
Previous observations
TIME
(PDT)
5-day plot - Wave Height
WVHT
ft
5-day plot - Swell Height
SwH
ft
5-day plot - Swell Period
SwP
sec
5-day plot - Swell Direction
SwD
 
5-day plot - Wind Wave Height
WWH
ft
5-day plot - Wind Wave Period
WWP
sec
5-day plot - Wind Wave Direction
WWD
 
5-day plot - Wave Steepness
STEEPNESS
 
5-day plot - Average Wave Period
APD
sec
2024-06-23 03:56 am 2.6 1.6 18.2SSW 2.3 9.1 W AVERAGE 7.0
2024-06-23 03:26 am 3.0 2.0 18.2SSW 2.3 9.1 W AVERAGE 7.4
2024-06-23 02:56 am 2.6 1.3 18.2SSW 2.3 8.3 W AVERAGE 6.6
2024-06-23 02:26 am 2.6 1.6 18.2SSW 2.3 9.1 W AVERAGE 6.8
2024-06-23 01:56 am 2.6 1.6 18.2SSW 2.3 8.3 W AVERAGE 6.8
2024-06-23 01:26 am 2.6 1.6 18.2SSW 2.3 8.3 WNW AVERAGE 6.4
2024-06-23 12:56 am 2.6 1.3 18.2 S 2.3 9.1 W AVERAGE 6.3
2024-06-23 12:26 am 2.6 1.6 18.2SSW 2.3 9.1 W AVERAGE 6.3
2024-06-22 11:56 pm 2.6 1.3 18.2 S 2.3 9.1 W N/A 6.1
2024-06-22 11:26 pm 2.6 1.3 18.2 S 2.0 8.3 W N/A 6.0
2024-06-22 10:56 pm 2.6 1.3 18.2 S 2.3 9.1 W AVERAGE 6.1
2024-06-22 10:26 pm 2.6 1.3 18.2SSW 2.3 8.3 W N/A 6.0
2024-06-22 09:56 pm 2.6 1.3 18.2 S 2.0 9.9 WSW N/A 6.0
2024-06-22 09:26 pm 2.6 1.3 18.2 S 2.3 7.7 W N/A 5.9
2024-06-22 08:56 pm 2.6 1.3 11.1SSW 2.3 9.1 W N/A 5.8
2024-06-22 08:26 pm 2.6 1.3 20.0SSW 2.3 9.9 WSW N/A 6.0
2024-06-22 07:56 pm 2.6 1.3 13.3SSW 2.3 7.1 W N/A 5.8
2024-06-22 07:26 pm 2.6 1.3 18.2SSW 2.3 9.1 W AVERAGE 5.7
2024-06-22 06:56 pm 2.6 1.3 18.2 S 2.3 6.7 WNW AVERAGE 6.0
2024-06-22 06:26 pm 2.6 1.0 18.2 SW 2.6 8.3 WNW AVERAGE 5.8
2024-06-22 05:56 pm 3.0 1.3 20.0SSE 2.6 8.3 WNW AVERAGE 5.8
2024-06-22 05:26 pm 3.0 1.3 11.8SSW 2.6 9.1 W AVERAGE 5.9
2024-06-22 04:56 pm 3.0 1.3 13.3SSW 2.6 7.7 WNW AVERAGE 6.1
2024-06-22 04:26 pm 3.0 1.0 11.8SSW 3.0 8.3 WNW AVERAGE 6.0
2024-06-22 03:56 pm 3.0 1.0 11.8SSW 3.0 7.7 WNW AVERAGE 5.9
2024-06-22 03:26 pm 3.3 1.3 10.5 SW 3.0 8.3 WNW AVERAGE 6.2
2024-06-22 02:56 pm 3.3 1.3 13.3 S 3.3 8.3 WNW AVERAGE 6.1
2024-06-22 02:26 pm 3.3 1.0 14.3SSW 3.0 8.3 WNW AVERAGE 5.9
2024-06-22 01:56 pm 3.3 1.3 12.5SSW 3.3 7.7 WNW AVERAGE 5.9
2024-06-22 01:26 pm 3.6 1.3 12.5SSW 3.3 8.3 WNW AVERAGE 6.2
2024-06-22 12:56 pm 3.6 1.3 11.8SSW 3.6 7.1 WNW AVERAGE 6.0
2024-06-22 12:26 pm 3.6 1.0 11.8 S 3.6 8.3 WNW AVERAGE 6.3
2024-06-22 11:56 am 3.9 1.6 12.5SSW 3.6 7.1 WNW AVERAGE 6.3
2024-06-22 11:26 am 3.6 1.3 13.3SSW 3.6 8.3 WNW AVERAGE 6.1
2024-06-22 10:56 am 3.9 1.3 13.3SSW 3.6 7.1 WNW AVERAGE 6.2
2024-06-22 10:26 am 3.6 1.3 12.5SSW 3.6 7.1 WNW AVERAGE 6.0
2024-06-22 09:56 am 3.6 1.3 11.1 S 3.3 8.3 WNW AVERAGE 5.9
2024-06-22 09:26 am 3.9 1.0 11.8SSW 3.6 7.7 WNW AVERAGE 6.0
2024-06-22 08:56 am 3.6 1.3 12.5SSW 3.3 7.1 WNW AVERAGE 5.9
2024-06-22 08:26 am 3.6 1.3 14.3SSW 3.6 7.1 W AVERAGE 6.1
2024-06-22 07:56 am 3.6 1.3 12.5SSW 3.3 7.1 WNW AVERAGE 6.3
2024-06-22 07:26 am 3.6 1.3 11.8SSW 3.3 8.3 WNW AVERAGE 6.2
2024-06-22 06:56 am 3.6 1.0 13.3SSW 3.6 8.3 WNW AVERAGE 6.2
2024-06-22 06:26 am 3.3 1.3 11.8SSW 3.3 7.7 WNW AVERAGE 6.1
2024-06-22 05:56 am 3.3 1.3 14.3SSW 3.3 8.3 W AVERAGE 6.1
2024-06-22 05:26 am 3.3 1.3 14.3SSW 3.0 7.1 W AVERAGE 6.1
2024-06-22 04:56 am 3.3 1.0 13.3SSW 3.3 8.3 W AVERAGE 6.1
2024-06-22 04:26 am 3.3 1.3 13.3SSW 3.3 7.1 W AVERAGE 6.2
2024-06-22 03:56 am 3.3 1.0 11.8SSW 3.0 7.7 WNW AVERAGE 6.0

Plot of wave energy versus frequency (and period)